New Orleans, LA

8:14 AM CDT on September 19, 2019 (GMT -0500)
New Orleans International

Weather History for KMSY - August, 2019

Change the Weather History Date:

Saturday, August 24, 2019

  Actual Average Record
Temperature  
Mean Temperature 86 °F -  
Max Temperature 93 °F 89 °F 97 °F (2011)
Min Temperature 78 °F 73 °F 63 °F (1965)
Cooling Degree Days 20    
Growing Degree Days 36 (Base 50)    
Moisture  
Dew Point 75 °F    
Average Humidity 79    
Maximum Humidity 90    
Minimum Humidity 55    
Precipitation  
Precipitation 0.02 in - - ()
Sea Level Pressure  
Sea Level Pressure 29.98 in    
Wind  
Wind Speed 5 mph (South)    
Max Wind Speed 17 mph    
Max Gust Speed 29 mph    
Visibility 9 miles    
Events Rain , Thunderstorm    
Averages and records for this station are not official NWS values.
T = Trace of Precipitation, MM = Missing Value Source: NWS Daily Summary

Daily Weather History Graph

Daily Weather History Graph

Search for Another Location

Airport or City:

Astronomy

Aug. 24, 2019 Rise Set
Actual Time 6:33 AM CDT 7:32 PM CDT
Civil Twilight 6:08 AM CDT 7:57 PM CDT
Nautical Twilight 5:39 AM CDT 8:26 PM CDT
Astronomical Twilight 5:09 AM CDT 8:56 PM CDT
Moon 12:35 AM CDT (8/24) 2:37 PM CDT (8/24)
Length of Visible Light 13h 48m
Length of Day
12h 59m
Last Quarter, 39% of the Moon is Illuminated
Aug 24
Last Quarter
Aug 30
New
Sep 5
First Quarter
Sep 13
Full
Sep 21
Last Quarter

Hourly Weather History & Observations

Time (CDT) Temp. Heat Index Dew Point Humidity Pressure Visibility Wind Dir Wind Speed Gust Speed Precip Events Conditions
12:53 AM 82.0 °F 89.4 °F 75.9 °F 82% 29.98 in 10.0 mi SE 4.6 mph - N/A   Overcast
1:53 AM 81.0 °F 87.3 °F 75.9 °F 85% 29.98 in 10.0 mi ESE 5.8 mph - N/A   Overcast
2:53 AM 81.0 °F 87.3 °F 75.9 °F 85% 29.98 in 10.0 mi Calm Calm - N/A   Overcast
3:53 AM 79.0 °F - 75.9 °F 90% 29.99 in 10.0 mi Calm Calm - N/A   Overcast
4:53 AM 81.0 °F 87.3 °F 75.9 °F 85% 29.99 in 10.0 mi Calm Calm - N/A   Mostly Cloudy
5:53 AM 79.0 °F - 75.9 °F 90% 30.01 in 10.0 mi Calm Calm - N/A   Mostly Cloudy
6:53 AM 80.1 °F 85.8 °F 77.0 °F 90% 30.01 in 10.0 mi Calm Calm - N/A   Mostly Cloudy
8:53 AM 87.1 °F 98.8 °F 77.0 °F 72% 30.01 in 10.0 mi ENE 3.5 mph - N/A   Mostly Cloudy
9:53 AM 88.0 °F 96.5 °F 73.9 °F 63% 30.02 in 10.0 mi SE 4.6 mph - N/A   Mostly Cloudy
10:53 AM 90.0 °F 99.0 °F 73.9 °F 59% 30.01 in 10.0 mi Variable 4.6 mph - N/A   Mostly Cloudy
11:53 AM 91.0 °F 100.4 °F 73.9 °F 57% 30.00 in 10.0 mi South 9.2 mph - N/A   Mostly Cloudy
12:53 PM 90.0 °F 101.3 °F 75.9 °F 63% 29.98 in 10.0 mi SSE 10.4 mph - 0.02 in   Mostly Cloudy
1:53 PM 93.0 °F 104.6 °F 75.0 °F 56% 29.97 in 10.0 mi South 9.2 mph - N/A   Mostly Cloudy
2:31 PM 82.9 °F 89.4 °F 73.9 °F 74% 29.97 in 10.0 mi SW 10.4 mph - 0.00 in Thunderstorm Thunderstorm
2:53 PM 82.0 °F 87.9 °F 73.9 °F 76% 29.99 in 10.0 mi South 11.5 mph - 0.00 in Rain , Thunderstorm Light Rain
2:58 PM 81.0 °F 86.2 °F 73.9 °F 79% 29.99 in 5.0 mi South 16.1 mph 20.7 mph 0.01 in Rain , Thunderstorm Light Thunderstorms and Rain
3:06 PM 79.0 °F - 73.9 °F 84% 29.98 in 3.0 mi SSW 17.3 mph 28.8 mph 0.10 in Rain , Thunderstorm Light Thunderstorms and Rain
3:13 PM 78.1 °F - 75.0 °F 90% 29.98 in 3.0 mi SSW 15.0 mph - 0.17 in Rain Light Rain
3:47 PM 78.8 °F - 75.2 °F 89% 29.98 in 7.0 mi SW 4.6 mph - 0.37 in Rain , Thunderstorm Light Thunderstorms and Rain
3:53 PM 79.0 °F - 75.0 °F 88% 30.00 in 7.0 mi SSW 4.6 mph - 0.38 in Rain , Thunderstorm Light Thunderstorms and Rain
4:04 PM 79.0 °F - 75.0 °F 88% 29.98 in 9.0 mi South 6.9 mph - 0.00 in Rain Light Rain
4:53 PM 78.1 °F - 73.9 °F 87% 29.97 in 7.0 mi SSW 5.8 mph - 0.04 in Rain Rain
5:53 PM 80.1 °F 84.5 °F 73.9 °F 81% 29.96 in 10.0 mi Calm Calm - 0.02 in Rain Light Rain
6:53 PM 81.0 °F 85.8 °F 73.0 °F 77% 29.95 in 10.0 mi South 4.6 mph - 0.00 in   Mostly Cloudy
7:53 PM 80.1 °F 84.5 °F 73.9 °F 81% 29.95 in 10.0 mi East 3.5 mph - N/A   Mostly Cloudy
8:53 PM 79.0 °F - 73.9 °F 84% 29.97 in 10.0 mi Calm Calm - N/A   Mostly Cloudy
9:53 PM 79.0 °F - 73.9 °F 84% 29.99 in 10.0 mi Calm Calm - N/A   Mostly Cloudy
10:53 PM 80.1 °F 84.5 °F 73.9 °F 81% 29.98 in 10.0 mi Calm Calm - N/A   Overcast
11:53 PM 80.1 °F 84.5 °F 73.9 °F 81% 29.97 in 10.0 mi Calm Calm - N/A   Mostly Cloudy